{"data":{"norad_id":40339,"intl_designator":"2014-080B","name":"YAOGAN-25 01B","alt_names":[],"object_type":"PAYLOAD","status":"ACTIVE","operator":null,"country":"PRC","launch_date":"2014-12-10","launch_site_code":"JSC","launch_vehicle":null,"mission":null,"orbit_class":"UNKNOWN","rcs_meters":2.3855,"size_class":null,"mass_kg":null,"dimensions":null,"purposes":[],"wikipedia_slug":null,"has_3d_model":false,"image_url":null,"decayed_at":null,"tle_current":{"epoch":"2026-09-20T04:23:02.325984Z","epoch_age_seconds":68684,"freshness":"FRESH","line1":"1 40339U 14080B   26263.18266581  .00000052  00000+0  15696-3 0  9994","line2":"2 40339  63.3867  66.1232 0375295   9.4361 351.3464 13.45440546578415","mean_motion":13.45440546,"eccentricity":0.0375295,"inclination_deg":63.3867,"raan_deg":66.1232,"arg_perigee_deg":9.4361,"mean_anomaly_deg":351.3464,"bstar":0.00015696,"rev_number":57841,"period_min":107.02814065483,"perigee_km":808.8400968761,"apogee_km":1369.3220170123,"semimajor_km":7467.2180569442,"source":"CELESTRAK","updated_at":"2026-09-20T09:00:14.056934Z"}}}